KI4LFI Weather Reports


Display with metric or nautical units.
time (UTC)temp
F
wind
direction
speed
MPH
gust
MPH
rain 1hr
in
rain 24hr
in
rain mn
in
humidity
%
barometer
mb
20260504081538 46 0 0.0 0.0 0.00 0.00 0.00 97 1017.9
20260504044543 50 0 0.0 0.0 0.00 0.00 0.00 95 1019.1
20260504043042 50 0 0.0 0.0 0.00 0.00 0.00 94 1019.2
20260504041538 51 0 0.0 0.0 0.00 0.00 0.00 93 1019.3
20260504040040 51 0 0.0 0.0 0.00 0.00 0.00 92 1019.3
20260504034554 52 0 0.0 0.0 0.00 0.00 0.00 92 1019.2
20260504033055 52 0 0.0 0.0 0.00 0.00 0.00 90 1019.1
20260504031558 52 0 0.0 0.0 0.00 0.00 0.00 90 1019.1
20260504030042 53 0 0.0 0.0 0.00 0.00 0.00 90 1018.9
20260504024550 53 0 0.0 0.0 0.00 0.00 0.00 85 1018.8
20260504023044 54 0 0.0 0.0 0.00 0.00 0.00 86 1019.0
20260504021540 55 0 0.0 0.0 0.00 0.00 0.00 83 1018.8
20260504020038 55 0 0.0 0.0 0.00 0.00 0.00 79 1018.6
20260504014551 56 0 0.0 0.0 0.00 0.00 0.00 76 1018.5
20260504013045 57 0 0.0 0.0 0.00 0.00 0.00 74 1018.4
20260504011542 59 0 0.0 0.0 0.00 0.00 0.00 72 1018.2
20260504010043 60 0 0.0 0.0 0.00 0.00 0.00 73 1017.9
20260504004540 62 0 0.0 0.0 0.00 0.00 0.00 65 1017.9
20260504003042 63 0 0.0 0.0 0.00 0.00 0.00 61 1017.7
20260504001537 65 0 0.0 0.0 0.00 0.00 0.00 57 1017.5
20260504000104 67 0 0.0 0.0 0.00 0.00 0.00 53 1017.5
20260503234539 69 0 0.0 3.0 0.00 0.00 0.00 53 1017.5
20260503233041 70 0 0.0 3.0 0.00 0.00 0.00 47 1017.5
20260503231546 71 102 0.0 3.0 0.00 0.00 0.00 46 1017.5
20260503230044 72 1 0.0 2.0 0.00 0.00 0.00 45 1017.5
20260503224542 73 328 0.0 3.0 0.00 0.00 0.00 42 1017.3
20260503223039 74 357 0.0 7.0 0.00 0.00 0.00 41 1017.5
20260503221540 75 358 0.0 3.0 0.00 0.00 0.00 38 1017.5
20260503220045 75 143 1.0 6.0 0.00 0.00 0.00 41 1017.7
20260503214541 75 244 2.0 7.0 0.00 0.00 0.00 39 1017.8
20260503213038 74 79 2.0 8.0 0.00 0.00 0.00 38 1017.9
20260503211537 75 356 2.0 6.0 0.00 0.00 0.00 37 1017.9
20260503210044 75 252 2.0 8.0 0.00 0.00 0.00 39 1017.9
20260503204544 74 43 4.0 9.0 0.00 0.00 0.00 42 1017.9
20260503203042 74 290 1.0 8.0 0.00 0.00 0.00 41 1018.4
20260503201538 75 354 1.0 8.0 0.00 0.00 0.00 39 1018.4
20260503200045 76 219 1.0 7.0 0.00 0.00 0.00 42 1018.7
20260503194547 75 318 3.0 9.0 0.00 0.00 0.00 42 1019.1
20260503193044 76 29 2.0 8.0 0.00 0.00 0.00 41 1019.3
20260503191540 74 257 3.0 10.0 0.00 0.00 0.00 43 1019.6
20260503190037 73 285 5.0 10.0 0.00 0.00 0.00 40 1019.8
20260503184557 74 347 4.0 11.0 0.00 0.00 0.00 41 1019.9
20260503183044 73 301 3.0 7.0 0.00 0.00 0.00 42 1019.9
20260503181540 73 23 2.0 9.0 0.00 0.00 0.00 44 1019.9
20260503180048 72 24 4.0 9.0 0.00 0.00 0.00 42 1020.1
20260503174544 72 276 2.0 9.0 0.00 0.00 0.00 39 1020.2
20260503173043 72 342 1.0 11.0 0.00 0.00 0.00 43 1020.4
20260503171603 71 9 2.0 10.0 0.00 0.00 0.00 44 1020.7